Temperature
26 26 26 26 25 24 24 23 23 22 22 21 21 20 20 20 20 19 19 19 18 18 18 18 18 17 17 17 17 17 17 17 17 16 16 16 16 16 16 16 16 16 16
26 26 26 25 25 25 24 24 23 22 22 21 21 20 20 20 19 19 19 19 19 18 18 18 18 17 17 17 17 17 17 17 16 16 16 15 15 15 15 15 16 16 16
25 25 25 25 25 24 24 24 23 22 22 21 20 20 19 19 19 19 18 18 18 18 18 18 17 17 17 17 17 17 17 17 16 16 16 16 16 15 15 15 15 15 16
25 25 25 25 24 24 23 23 23 22 21 21 20 20 19 19 19 18 18 18 18 17 17 17 17 17 17 17 17 17 17 17 16 16 16 16 16 16 15 15 15 15 15
25 24 24 24 23 23 23 23 22 22 21 21 20 20 19 19 18 18 18 17 17 17 17 17 17 17 17 17 17 17 17 16 16 16 16 16 16 16 16 16 16 15 15
23 23 23 22 22 22 22 22 22 22 22 21 21 20 19 19 18 18 18 18 17 17 17 17 17 17 16 16 16 16 16 16 16 16 16 16 16 16 16 16 16 16 16
21 21 21 21 22 22 22 21 22 22 22 21 20 19 19 18 18 18 18 18 17 17 17 17 16 16 16 16 16 16 16 16 16 16 16 16 16 16 16 16 16 16 16
18 19 20 21 21 22 22 22 21 21 21 20 20 19 19 18 18 18 18 17 17 17 16 16 16 16 16 16 15 15 15 15 15 15 15 16 16 16 16 16 15 16 16
16 17 18 19 20 21 21 21 21 21 21 20 20 19 19 18 18 18 17 17 17 16 16 16 16 16 15 15 15 15 15 15 15 15 15 15 15 15 15 15 15 15 16
15 16 17 18 19 20 21 21 21 21 20 20 19 19 19 18 18 18 17 17 17 16 16 16 16 15 15 15 15 15 15 15 15 15 15 15 15 15 15 15 15 15 15
15 16 17 17 19 20 21 21 21 21 20 19 19 19 18 18 18 18 18 17 17 16 16 16 16 15 15 15 15 15 15 14 14 14 15 15 15 14 14 14 14 14 15
16 17 17 18 19 20 20 20 21 21 20 19 19 19 18 18 18 18 18 17 17 16 16 16 16 15 15 15 15 14 14 14 14 14 14 14 14 14 14 14 14 14 14
16 17 18 19 19 20 20 20 20 20 20 19 19 18 18 18 18 18 17 17 17 16 16 16 16 15 15 15 15 14 14 14 14 14 14 14 14 14 14 14 13 14 14
16 17 18 19 20 20 20 20 20 20 19 19 18 18 18 18 17 17 17 17 16 16 16 16 15 15 15 15 15 15 14 14 14 14 13 13 13 13 13 13 13 13 13
16 17 18 19 19 20 20 20 20 19 19 18 18 17 17 17 17 17 17 16 16 16 16 15 15 15 15 15 15 15 14 14 14 14 13 13 13 13 13 13 13 13 13
14 16 17 18 19 19 19 19 19 19 18 18 17 17 17 17 17 17 17 16 16 16 16 15 15 15 15 15 15 15 14 14 14 14 14 13 13 13 13 13 13 12 12
14 15 16 17 17 18 18 18 18 18 17 17 17 17 17 16 16 16 16 16 16 16 16 15 15 15 15 15 15 15 15 14 14 14 14 14 14 13 13 13 13 13 13
14 15 15 16 16 16 16 16 16 16 16 16 15 15 15 15 15 15 15 15 15 15 15 15 15 15 15 15 15 14 14 14 14 14 14 14 14 14 14 13 13 13 13
15 15 15 15 15 15 15 15 15 15 15 15 14 14 14 15 15 15 14 14 14 14 14 15 15 15 15 15 14 14 14 14 14 14 14 14 14 14 14 14 14 13 13
15 15 15 15 15 14 14 15 14 14 14 13 13 13 13 13 13 13 13 13 13 13 13 14 14 14 14 14 14 14 14 14 14 14 14 14 14 14 14 14 14 14 14
15 15 15 14 14 14 14 14 13 13 13 13 12 12 12 12 12 12 12 12 12 12 13 13 13 14 14 14 14 14 14 14 14 14 14 14 14 14 14 14 14 14 13
15 15 15 14 14 14 14 13 13 13 12 12 12 12 12 11 11 11 11 11 11 12 12 12 13 13 13 13 13 13 13 13 13 13 13 13 13 13 13 13 13 13 13
15 15 15 15 14 14 14 13 13 13 13 12 12 12 11 11 11 11 11 11 11 12 12 12 12 12 12 13 13 13 13 13 13 13 13 13 13 13 13 13 13 13 13
16 15 15 15 15 14 14 14 13 13 13 12 12 12 11 11 11 11 11 11 11 11 12 12 12 12 12 12 12 12 12 12 12 12 12 12 12 12 12 12 12 12 12
16 16 15 15 15 14 14 14 13 13 13 12 12 12 11 11 11 11 11 11 11 11 11 11 11 11 11 11 11 11 11 12 12 12 12 12 12 12 12 12 12 12 12
16 16 16 15 15 15 14 14 13 13 13 12 12 12 11 11 11 11 11 11 11 11 11 11 11 11 11 11 11 11 11 11 11 11 11 11 11 11 11 11 11 11 11
Wind_Speed
10 9 15 17 16 15 15 14 13 12 10 7 7 6 6 6 6 6 7 8 7 7 5 6 7 7 7 8 8 5 6 4 3 4 3 3 3 3 4 4 4 4 7
7 7 10 14 15 14 13 12 11 11 11 8 6 4 4 4 5 5 6 8 7 7 6 7 7 7 7 8 8 6 5 3 3 4 4 2 2 2 1 3 5 5 5
12 11 11 11 12 12 12 11 10 10 10 9 6 5 4 3 2 4 5 6 7 7 6 7 7 7 7 8 8 8 8 5 3 3 4 4 4 2 2 2 3 5 4
12 12 13 13 13 11 10 10 10 10 10 10 9 8 6 5 6 5 6 6 6 6 7 7 7 7 6 7 8 8 6 8 5 3 2 3 4 4 2 2 2 4 5
11 13 14 14 14 12 11 9 10 9 9 8 9 8 5 4 3 3 5 5 5 5 6 7 7 7 7 8 7 7 7 6 6 5 3 2 2 2 3 3 3 2 3
6 10 10 12 13 12 11 8 8 7 7 8 8 7 7 5 4 4 4 4 3 4 6 6 7 7 6 7 8 8 8 7 7 6 5 5 4 3 3 3 3 4 4
5 10 12 11 12 12 11 8 9 7 6 7 6 6 6 5 6 5 5 4 3 3 4 5 6 6 6 7 7 7 8 8 8 8 6 6 5 4 4 3 3 3 3
12 5 6 8 10 11 10 10 8 7 6 5 4 4 5 4 3 4 4 4 3 3 3 4 5 6 6 7 7 7 8 7 8 9 8 6 6 5 5 4 4 3 3
13 11 7 3 6 9 9 9 8 6 5 4 3 3 5 5 4 4 3 3 2 2 3 4 3 4 4 6 7 6 8 7 8 8 9 7 6 6 6 4 4 5 5
13 12 10 6 2 3 5 7 7 6 5 5 4 4 6 6 5 5 4 3 3 3 4 4 3 3 2 3 4 4 6 7 8 7 9 9 7 7 6 5 4 4 5
10 9 6 6 6 4 4 6 7 6 5 5 4 6 5 5 5 5 4 4 3 4 4 4 3 3 2 2 2 2 3 5 6 6 8 9 8 7 7 6 5 3 3
5 4 5 8 9 6 5 5 7 7 6 6 6 6 5 5 5 4 4 4 5 4 4 4 4 3 3 2 2 2 3 4 4 5 6 6 6 8 7 7 6 4 3
6 7 8 11 11 9 7 7 7 7 6 6 6 4 4 5 5 5 5 5 5 5 5 5 5 5 4 4 3 3 3 3 3 3 4 5 6 7 6 7 7 5 4
5 6 8 9 10 8 6 6 6 5 6 5 5 3 4 6 6 6 5 6 6 6 6 6 6 6 5 5 4 4 3 2 2 2 3 4 5 6 7 6 7 6 6
10 6 4 4 5 4 2 1 2 4 5 5 4 3 4 5 5 5 6 6 6 7 6 6 6 5 5 6 6 5 5 4 3 2 2 3 5 7 7 6 7 6 5
15 13 11 9 9 8 7 6 6 5 5 5 3 2 2 3 3 3 4 4 5 5 5 6 6 7 6 9 11 8 6 5 5 5 4 5 6 8 10 10 11 10 7
13 14 13 12 11 11 11 12 11 11 10 9 7 6 5 5 5 4 2 2 4 4 5 6 7 7 8 11 12 13 7 6 6 6 5 6 7 9 7 10 12 12 13
11 10 9 10 10 11 11 10 10 11 10 9 8 7 6 6 6 6 5 3 2 3 4 5 6 7 9 12 13 13 8 6 5 6 7 7 7 7 9 8 8 8 9
7 7 7 8 9 9 8 9 9 8 8 7 6 6 6 6 6 6 5 3 2 2 2 3 5 6 8 10 12 10 5 4 4 4 5 7 7 10 12 9 8 8 8
5 6 6 7 8 6 7 9 7 7 7 5 5 5 5 5 5 5 4 3 3 2 2 2 2 4 5 7 9 9 4 4 2 2 2 5 6 7 8 9 8 8 7
4 5 6 5 4 4 6 7 6 5 3 4 4 5 5 5 5 5 4 4 4 3 3 3 2 1 1 3 5 8 4 4 3 1 1 1 2 3 4 7 6 8 5
2 4 4 3 3 3 5 5 4 4 3 4 5 5 6 6 6 7 7 6 6 5 5 4 5 4 3 2 3 7 6 5 3 2 1 2 2 2 2 3 3 4 4
0 2 3 3 4 3 3 4 5 3 3 5 5 4 5 6 7 7 8 7 7 6 5 5 4 4 4 4 5 5 5 3 2 1 2 1 1 2 1 1 2 3 3
2 1 2 3 3 3 3 3 4 4 5 5 3 3 4 5 6 6 7 7 7 7 6 6 5 4 4 4 4 3 2 2 2 1 3 4 4 2 1 1 1 2 2
3 1 2 1 1 1 2 3 4 5 5 3 2 2 2 3 4 5 6 6 6 5 4 4 4 4 4 5 4 1 1 1 1 2 2 1 1 1 1 1 0 0 1
4 3 3 1 2 3 2 1 2 4 4 2 1 1 1 1 1 2 3 7 6 9 10 8 5 4 5 6 7 7 5 3 3 3 2 1 1 0 0 1 1 1 1
Wind_Direction
237 204 184 178 176 178 178 180 180 175 166 161 162 162 177 181 185 202 205 204 200 197 188 203 197 185 183 180 161 147 142 137 128 101 73 28 53 120 157 163 163 177 174
241 205 177 172 172 174 174 172 172 166 165 165 163 163 161 179 192 203 209 211 206 193 189 192 200 192 183 174 164 150 138 144 143 134 116 71 0 352 120 171 175 183 180
215 197 174 161 154 155 163 165 157 149 147 144 135 121 105 97 155 213 220 219 209 193 184 182 193 196 183 183 177 163 150 158 169 150 146 154 197 240 298 224 196 182 182
197 180 164 151 142 139 141 139 134 130 134 138 144 151 163 177 195 198 211 216 201 191 186 184 186 188 188 189 191 175 160 154 166 172 168 157 153 151 197 287 260 214 195
180 164 157 147 136 131 125 125 124 126 132 137 145 147 155 176 178 182 203 215 208 194 188 187 186 185 187 191 191 180 170 167 169 171 166 159 145 128 143 206 247 256 233
143 133 127 126 121 117 110 114 124 129 135 138 144 152 161 166 168 188 202 212 208 194 189 188 192 190 187 189 191 188 183 189 182 178 171 166 163 166 153 176 205 219 237
78 124 130 131 129 124 128 145 148 148 147 144 152 166 173 178 192 201 202 197 194 195 195 187 193 195 195 193 187 190 197 196 191 189 191 186 179 152 155 165 188 208 235
21 44 115 130 134 134 147 155 157 155 153 151 169 190 180 172 190 192 181 185 191 199 184 179 190 196 195 195 192 198 204 202 203 202 195 190 188 169 165 167 165 178 217
19 24 25 80 128 141 163 159 157 156 160 164 171 181 169 161 164 162 159 163 170 167 148 152 165 184 192 195 194 207 212 207 208 209 203 200 193 179 173 170 177 172 190
14 20 14 5 7 157 165 158 159 168 171 164 163 159 153 152 151 140 142 146 150 140 135 133 136 141 157 175 189 207 214 213 217 215 210 207 196 184 172 170 175 186 186
8 9 359 314 284 251 200 173 176 175 172 161 150 145 148 148 145 143 153 158 159 159 159 158 153 148 145 143 157 191 196 207 215 216 212 213 196 185 179 173 165 175 176
344 315 277 261 266 268 245 210 193 184 181 166 152 158 159 157 157 167 178 173 175 180 179 172 167 168 170 166 166 189 195 200 208 210 205 207 199 190 181 176 174 175 177
287 262 261 263 264 265 249 226 208 194 181 163 153 159 173 180 189 197 202 197 193 196 190 182 186 187 183 179 179 180 186 196 198 197 197 194 184 187 182 178 177 175 179
304 274 267 272 274 275 262 239 224 191 166 148 149 179 208 210 213 211 213 212 204 201 201 199 199 195 189 187 181 172 166 166 172 183 187 185 185 184 177 176 172 169 172
14 355 318 314 320 323 325 278 207 152 145 138 152 211 251 249 237 225 219 216 212 213 205 202 209 205 196 199 189 182 179 177 183 196 203 204 200 192 182 178 173 171 174
22 26 33 39 38 36 37 41 54 75 90 100 90 31 342 323 289 256 224 214 220 222 206 207 207 211 218 212 199 189 187 190 197 212 223 228 225 217 211 206 192 184 183
25 31 37 43 46 49 54 58 59 65 71 67 57 44 40 32 10 359 340 256 237 227 217 214 204 212 225 220 207 200 190 198 208 215 221 233 231 224 220 222 217 212 212
25 27 34 47 51 56 59 63 65 66 67 63 55 41 37 34 22 23 15 346 294 247 234 226 215 215 226 222 214 204 195 201 213 222 224 228 240 224 214 215 221 226 226
30 35 41 52 55 57 62 67 63 64 64 58 51 41 39 35 23 13 355 339 329 302 258 243 220 218 232 227 216 196 181 199 220 237 235 225 231 238 217 201 214 230 240
39 45 45 50 51 47 59 63 55 53 51 45 39 32 33 29 14 355 338 328 323 309 299 286 238 221 232 233 215 182 164 184 210 254 275 238 221 227 206 195 202 219 233
68 69 60 54 47 50 61 56 42 29 16 31 37 28 19 13 7 353 345 342 351 3 16 26 21 5 272 252 203 164 150 164 167 177 269 292 221 208 194 187 198 218 211
78 78 62 33 15 40 58 43 13 334 359 36 42 31 22 18 16 12 8 9 14 26 28 39 38 31 24 50 144 145 143 151 150 175 217 249 233 202 171 172 204 198 164
328 75 80 29 6 16 48 26 339 341 46 57 53 46 37 28 24 27 22 18 20 27 28 35 38 28 26 37 69 107 122 133 135 183 212 193 150 117 109 145 128 115 120
308 71 90 42 4 357 21 13 0 42 89 87 72 53 48 37 32 31 28 30 23 21 26 30 31 33 33 30 31 40 61 80 83 65 77 89 80 49 15 65 76 100 138
303 248 139 89 306 279 345 13 44 76 89 93 73 44 49 59 50 46 36 29 27 19 23 23 26 32 30 5 12 54 53 82 135 112 80 52 30 15 4 6 18 112 132
324 283 247 204 205 214 249 294 77 107 113 99 64 0 359 42 99 87 54 36 33 31 39 41 42 33 32 30 44 47 48 53 123 111 87 67 55 43 6 16 30 50 162
Height
1471 1473 1474 1477 1482 1486 1489 1492 1494 1497 1500 1502 1505 1507 1509 1511 1513 1514 1516 1518 1519 1520 1522 1524 1526 1527 1529 1531 1533 1535 1536 1538 1540 1541 1542 1543 1543 1543 1544 1544 1545 1546 1546
1468 1470 1472 1474 1478 1482 1485 1489 1492 1494 1497 1499 1502 1505 1507 1508 1510 1512 1513 1515 1516 1517 1519 1521 1522 1523 1525 1527 1529 1531 1533 1535 1537 1538 1540 1541 1543 1543 1543 1544 1545 1545 1546
1464 1466 1468 1471 1474 1478 1483 1486 1489 1492 1495 1498 1500 1503 1504 1505 1506 1507 1509 1511 1512 1514 1516 1517 1518 1520 1522 1523 1525 1527 1529 1532 1534 1536 1538 1539 1539 1541 1542 1543 1544 1545 1545
1457 1461 1464 1468 1471 1476 1481 1485 1488 1491 1494 1496 1498 1499 1500 1501 1502 1504 1505 1507 1509 1511 1512 1513 1515 1516 1518 1519 1521 1523 1525 1528 1530 1532 1534 1537 1537 1538 1539 1541 1542 1543 1544
1452 1456 1460 1465 1469 1475 1480 1484 1487 1490 1492 1494 1495 1496 1497 1498 1500 1501 1502 1504 1506 1507 1509 1510 1511 1512 1513 1515 1517 1519 1521 1524 1526 1528 1530 1533 1534 1535 1536 1538 1539 1541 1542
1451 1455 1460 1464 1468 1474 1479 1484 1487 1489 1490 1492 1493 1494 1495 1496 1497 1499 1500 1502 1503 1504 1505 1506 1507 1508 1509 1511 1513 1514 1516 1519 1522 1524 1526 1528 1530 1531 1533 1535 1536 1538 1540
1455 1455 1460 1465 1468 1473 1478 1484 1486 1488 1489 1490 1492 1493 1494 1495 1496 1498 1499 1500 1501 1501 1502 1502 1503 1504 1505 1507 1508 1510 1512 1514 1516 1519 1521 1524 1526 1528 1530 1533 1534 1535 1537
1462 1462 1462 1465 1469 1473 1479 1482 1485 1486 1487 1489 1490 1492 1493 1494 1495 1496 1497 1498 1498 1499 1499 1500 1500 1500 1501 1502 1504 1505 1507 1509 1511 1514 1516 1518 1521 1524 1526 1529 1531 1533 1534
1467 1467 1468 1469 1470 1474 1480 1482 1484 1485 1486 1488 1490 1491 1492 1493 1494 1495 1496 1496 1497 1497 1497 1497 1497 1498 1498 1498 1499 1500 1502 1503 1505 1508 1510 1512 1515 1518 1521 1524 1527 1530 1530
1472 1470 1471 1473 1475 1478 1480 1481 1483 1485 1487 1488 1489 1491 1492 1493 1494 1495 1495 1495 1496 1496 1496 1496 1495 1495 1495 1495 1496 1496 1497 1498 1499 1502 1504 1506 1509 1512 1515 1518 1521 1524 1527
1475 1474 1475 1476 1477 1478 1480 1481 1483 1485 1487 1488 1490 1491 1492 1493 1494 1494 1495 1495 1495 1495 1495 1495 1494 1493 1493 1493 1493 1493 1493 1494 1495 1496 1498 1500 1503 1506 1509 1512 1515 1519 1521
1478 1477 1476 1476 1476 1478 1480 1482 1483 1485 1487 1488 1490 1491 1492 1493 1493 1494 1494 1494 1494 1494 1494 1494 1493 1493 1492 1492 1491 1491 1491 1491 1492 1492 1493 1495 1498 1500 1503 1506 1509 1512 1515
1479 1478 1478 1477 1476 1477 1479 1481 1482 1484 1486 1488 1489 1491 1492 1493 1493 1493 1493 1494 1494 1494 1494 1493 1493 1493 1492 1492 1491 1490 1490 1490 1490 1490 1491 1492 1494 1496 1498 1500 1503 1506 1510
1480 1478 1477 1476 1476 1476 1477 1479 1480 1483 1485 1487 1489 1490 1491 1492 1493 1493 1493 1493 1493 1493 1493 1492 1492 1492 1492 1491 1491 1490 1490 1490 1490 1490 1490 1491 1492 1493 1494 1496 1498 1502 1504
1480 1478 1477 1476 1476 1476 1476 1477 1478 1481 1483 1486 1487 1489 1490 1491 1491 1491 1491 1491 1492 1491 1491 1491 1491 1491 1491 1491 1491 1490 1490 1490 1490 1490 1490 1491 1491 1492 1493 1494 1496 1498 1500
1483 1480 1478 1477 1477 1477 1477 1477 1478 1480 1482 1485 1486 1487 1487 1488 1488 1488 1489 1489 1489 1489 1489 1489 1489 1489 1489 1489 1490 1490 1490 1490 1490 1491 1491 1491 1491 1492 1493 1494 1495 1497 1499
1488 1484 1482 1481 1480 1479 1479 1479 1480 1481 1482 1484 1485 1485 1485 1485 1485 1485 1485 1486 1486 1486 1486 1486 1486 1486 1487 1487 1488 1488 1489 1489 1490 1490 1491 1491 1491 1492 1493 1493 1495 1496 1497
1494 1491 1489 1487 1485 1484 1484 1483 1483 1483 1483 1483 1483 1483 1483 1483 1482 1482 1482 1481 1481 1481 1482 1482 1482 1483 1483 1484 1485 1486 1486 1487 1488 1489 1490 1490 1491 1491 1492 1492 1493 1494 1495
1499 1497 1494 1492 1490 1489 1488 1487 1486 1485 1484 1484 1483 1482 1481 1480 1479 1478 1477 1477 1477 1476 1477 1477 1478 1479 1480 1481 1482 1483 1484 1485 1486 1487 1488 1488 1489 1490 1490 1491 1491 1492 1493
1503 1501 1499 1496 1494 1493 1491 1489 1488 1487 1486 1485 1484 1482 1480 1479 1477 1475 1474 1473 1472 1472 1472 1473 1474 1475 1476 1477 1479 1480 1481 1482 1484 1485 1486 1486 1487 1487 1488 1488 1488 1489 1490
1505 1503 1501 1499 1497 1496 1494 1492 1490 1489 1489 1487 1486 1483 1481 1479 1476 1474 1472 1471 1470 1469 1469 1470 1471 1472 1473 1474 1476 1477 1478 1479 1481 1482 1483 1484 1485 1485 1485 1485 1486 1486 1487
1507 1505 1503 1501 1500 1498 1496 1494 1493 1492 1491 1489 1487 1485 1482 1480 1477 1475 1473 1472 1470 1470 1469 1469 1469 1470 1470 1472 1473 1474 1475 1476 1478 1480 1481 1482 1482 1483 1483 1483 1483 1483 1484
1508 1506 1505 1504 1502 1501 1499 1497 1495 1494 1493 1491 1489 1487 1485 1482 1480 1478 1475 1474 1472 1471 1470 1469 1469 1469 1469 1470 1471 1472 1473 1474 1476 1477 1478 1479 1480 1480 1480 1480 1480 1480 1481
1509 1508 1506 1506 1505 1503 1502 1499 1497 1496 1494 1493 1491 1489 1487 1485 1483 1481 1479 1477 1475 1474 1472 1471 1471 1470 1470 1470 1471 1471 1472 1473 1474 1475 1476 1477 1477 1477 1478 1478 1478 1478 1479
1510 1509 1508 1507 1506 1505 1504 1502 1500 1498 1496 1495 1493 1491 1489 1487 1486 1484 1481 1480 1478 1476 1475 1474 1473 1472 1471 1471 1471 1471 1472 1472 1473 1474 1474 1475 1475 1475 1475 1476 1476 1476 1477
1510 1510 1509 1508 1507 1506 1505 1503 1501 1499 1498 1496 1494 1493 1491 1489 1488 1486 1484 1482 1480 1479 1477 1476 1475 1473 1473 1472 1472 1472 1472 1472 1473 1473 1473 1473 1473 1474 1474 1474 1475 1475 1476